Lid_Strength_Index
0 1 1 1 1 0 0 1 2 3 3 3 3 3 3 3 4 4 6 5 5 1 1 5 5 6 7 9 9 10 14 15 14 12 11 8 9 7 6 6 6 5 5 4 3
0 0 0 1 1 1 1 1 2 3 3 3 3 3 3 3 5 6 2 1 1 0 5 6 7 6 9 10 10 12 14 13 10 10 10 9 10 8 8 7 7 6 4 3 3
0 1 1 1 1 1 1 2 2 2 3 3 3 3 3 4 6 7 1 1 1 2 6 6 6 7 10 10 11 12 12 10 9 8 10 10 10 8 8 8 7 7 6 4 4
1 1 1 1 1 1 1 2 2 2 3 3 3 3 3 4 11 6 0 1 1 4 5 6 7 9 11 12 10 12 10 10 9 8 10 10 10 8 8 7 4 5 4 4 4
1 1 1 1 1 1 2 2 2 2 3 3 3 3 5 6 6 3 -0 1 4 4 5 5 7 8 10 10 10 11 10 9 9 8 9 8 10 9 8 7 6 4 4 5 4
3 2 1 1 1 1 1 2 1 3 4 5 4 5 7 10 4 3 4 4 5 5 5 5 6 7 9 10 11 10 9 9 9 9 9 9 9 10 8 7 7 5 5 5 4
1 1 1 1 1 1 1 1 1 2 4 4 5 6 7 7 3 4 4 4 4 5 7 5 5 7 8 10 8 9 11 10 9 9 10 8 11 10 8 8 8 6 5 5 4
2 2 2 2 2 2 2 2 2 2 3 4 4 6 8 2 2 3 3 4 4 4 4 4 5 7 9 9 9 11 11 14 10 9 8 10 13 10 8 8 8 8 6 5 5
2 2 3 2 3 3 3 2 3 4 4 4 7 7 9 2 4 2 3 4 4 3 4 3 5 8 9 12 13 12 16 13 11 8 9 11 12 10 8 9 9 9 7 6 5
2 2 3 3 3 4 3 5 4 5 5 5 5 8 6 7 4 3 3 3 5 5 7 8 9 12 13 13 16 14 14 13 12 9 10 13 12 10 9 9 9 10 9 7 5
3 3 3 4 4 5 6 6 7 8 7 8 9 8 7 5 3 5 3 6 6 8 12 9 13 15 13 11 11 11 11 12 10 9 10 10 12 11 10 10 10 10 10 9 7
3 3 3 4 5 5 5 7 6 8 11 7 6 6 6 6 8 6 4 8 9 12 10 11 14 11 10 9 10 10 11 11 10 8 9 11 11 10 9 10 9 9 9 9 8
3 4 4 5 6 7 7 6 5 5 10 9 7 8 7 6 8 7 5 7 9 11 11 12 11 9 10 10 11 10 11 11 11 10 9 10 11 11 8 8 8 8 8 8 8
4 4 5 6 7 7 8 6 5 5 13 11 9 7 6 6 9 5 5 6 9 11 11 11 9 9 10 10 10 12 9 9 10 12 15 11 16 12 10 9 8 7 7 8 8
4 4 5 4 6 8 6 5 5 6 20 9 8 5 5 8 7 7 4 6 9 9 11 12 11 10 10 10 8 11 8 9 10 12 13 13 14 13 10 10 9 9 8 8 7
4 5 5 7 6 7 5 5 5 13 19 10 9 10 10 7 7 9 8 6 7 9 9 9 7 9 9 8 8 7 9 10 10 12 17 13 14 15 12 11 9 8 8 7 9
3 4 5 5 8 6 5 7 15 18 9 11 11 9 10 10 9 8 10 11 12 14 14 10 10 8 7 10 8 9 12 17 19 18 19 12 13 13 10 9 9 8 8 7 5
3 3 3 3 5 5 6 13 18 13 12 8 9 10 12 9 9 9 10 12 9 10 12 15 16 10 8 9 11 11 11 17 22 21 18 12 16 13 9 8 8 7 8 7 7
3 4 5 3 3 3 9 16 16 12 9 10 10 12 12 10 9 9 10 11 10 9 13 13 13 9 9 9 10 11 13 10 14 14 17 15 12 9 8 9 8 8 8 8 8
4 6 6 4 3 4 10 13 11 8 8 9 13 11 12 11 11 11 11 10 10 8 8 10 14 10 9 10 9 10 9 16 15 22 22 17 15 16 11 10 9 10 9 8 8
5 9 7 4 4 8 14 12 10 8 8 10 11 11 12 12 11 11 11 9 9 9 9 11 12 12 9 12 13 12 13 11 13 16 21 21 18 10 10 9 10 10 9 9 7
9 14 7 6 12 14 13 10 8 9 8 9 10 11 12 11 12 12 12 10 8 8 10 9 12 15 12 9 8 10 12 12 17 17 16 17 17 9 9 8 8 9 8 8 8
13 13 8 7 15 14 11 10 9 9 9 9 10 9 9 11 13 11 11 8 8 9 10 9 13 17 15 12 9 12 11 11 11 13 16 18 17 8 8 8 8 9 8 8 7
12 13 12 11 12 13 12 12 11 8 9 9 9 9 11 12 11 12 11 8 7 7 7 8 11 14 17 15 13 15 13 11 13 17 17 16 14 11 10 9 8 7 7 8 7
11 12 10 14 12 12 11 11 12 12 10 10 10 12 12 13 12 11 9 9 7 7 8 9 14 12 11 11 12 13 13 13 14 13 16 14 13 11 9 9 8 7 7 7 7
11 10 8 10 10 11 12 12 12 11 11 12 12 11 10 12 12 13 11 11 11 9 10 9 14 12 13 11 11 13 12 12 12 12 12 12 12 8 7 8 8 8 7 7 7
5 5 8 11 11 12 12 12 12 11 10 9 10 11 12 11 10 9 9 9 9 10 12 12 13 14 16 12 12 15 13 12 11 10 11 14 11 8 8 7 7 7 7 7 6